GW3631 Weather Reports


time (UTC)temp
F
wind
direction
speed
knots
gust
knots
rain 1hr
in
rain 24hr
in
rain mn
in
humidity
%
barometer
mb
20260906204613 78 281 2.6 7.8 0.00 0.00 0.00 77 1017.2
20260906203104 79 283 2.6 7.0 0.00 0.00 0.00 76 1017.3
20260906201604 81 186 0.9 8.7 0.00 0.00 0.00 72 1017.4
20260906194602 82 175 2.6 8.7 0.00 0.00 0.00 67 1017.0
20260906193103 83 324 1.7 7.0 0.00 0.00 0.00 67 1016.9
20260906191613 83 85 3.5 7.8 0.00 0.00 0.00 66 1016.7
20260906184604 84 130 2.6 7.8 0.00 0.00 0.00 67 1016.9
20260906183102 83 105 2.6 8.7 0.00 0.00 0.00 68 1017.0
20260906181603 84 210 0.9 4.3 0.00 0.00 0.00 66 1017.1
20260906180115 83 281 0.9 7.0 0.00 0.00 0.00 69 1017.1
20260906174601 83 323 0.9 4.3 0.00 0.00 0.00 70 1017.0
20260906173105 82 77 0.9 5.2 0.00 0.00 0.00 71 1017.1
20260906171606 82 327 1.7 7.0 0.00 0.00 0.00 70 1017.2
20260906170106 81 121 0.9 5.2 0.00 0.00 0.00 72 1017.7
20260906164604 80 293 1.7 7.8 0.00 0.00 0.00 74 1017.9
20260906163122 79 252 1.7 4.3 0.00 0.00 0.00 76 1017.9
20260906161607 79 184 0.9 4.3 0.00 0.00 0.00 78 1017.9
20260906160100 78 231 0.0 4.3 0.00 0.00 0.00 79 1018.3
20260906154601 76 273 0.0 2.6 0.00 0.00 0.00 81 1018.5
20260906153116 75 238 0.0 4.3 0.00 0.00 0.00 82 1018.7
20260906151608 75 0 1.7 4.3 0.00 0.00 0.00 83 1018.6
20260906150106 74 205 1.7 5.2 0.00 0.00 0.00 84 1018.5
20260906144600 73 96 1.7 7.8 0.00 0.00 0.00 86 1018.6
20260906143057 71 139 0.9 3.5 0.00 0.00 0.00 89 1018.8
20260906141601 69 0 0.0 0.9 0.00 0.00 0.00 93 1018.9
20260906140106 68 0 0.0 0.0 0.00 0.00 0.00 96 1019.1
20260906134557 67 0 0.0 0.0 0.00 0.00 0.00 97 1018.9
20260906133121 65 0 0.0 0.0 0.00 0.00 0.00 97 1018.6
20260906131616 64 0 0.0 1.7 0.00 0.00 0.00 96 1018.4
20260906130112 63 0 0.0 0.9 0.00 0.00 0.00 96 1018.4
20260906124603 63 0 0.0 0.0 0.00 0.00 0.00 96 1018.3
20260906123058 62 0 0.0 0.0 0.00 0.00 0.00 96 1018.3
20260906121603 62 0 0.0 0.9 0.00 0.00 0.00 96 1018.1
20260906114557 62 0 0.0 1.7 0.00 0.00 0.00 95 1017.7
20260906113058 62 110 0.0 2.6 0.00 0.00 0.00 95 1017.9
20260906111557 62 0 0.0 0.0 0.00 0.00 0.00 95 1018.0
20260906110058 62 0 0.0 0.9 0.00 0.00 0.00 95 1017.9
20260906104559 62 0 0.0 0.9 0.00 0.00 0.00 95 1018.0
20260906103104 62 0 0.0 0.9 0.00 0.00 0.00 94 1018.1
20260906101559 62 0 0.0 0.0 0.00 0.00 0.00 94 1018.2
20260906100111 62 0 0.0 0.0 0.00 0.00 0.00 94 1018.1
20260906094607 63 0 0.0 0.0 0.00 0.00 0.00 94 1017.6
20260906093100 63 0 0.0 0.0 0.00 0.00 0.00 94 1017.4
20260906091559 64 0 0.0 0.9 0.00 0.00 0.00 94 1017.1
20260906090110 64 0 0.0 1.7 0.00 0.00 0.00 94 1017.0
20260906084602 64 0 0.0 2.6 0.00 0.00 0.00 94 1017.0
20260906083106 64 0 0.0 1.7 0.00 0.00 0.00 93 1017.0
20260906081601 64 105 0.0 2.6 0.00 0.00 0.00 93 1017.1
20260906074610 65 0 0.0 0.0 0.00 0.00 0.00 92 1017.1
20260906073118 65 0 0.0 0.9 0.00 0.00 0.00 92 1017.2
20260906071602 65 0 0.0 0.9 0.00 0.00 0.00 92 1017.6
20260906064602 65 0 0.0 0.9 0.00 0.00 0.00 92 1018.0
20260906063103 65 0 0.0 0.0 0.00 0.00 0.00 92 1017.9
20260906061602 66 0 0.0 0.0 0.00 0.00 0.00 92 1017.8
20260906060106 66 0 0.0 0.0 0.00 0.00 0.00 91 1017.7
20260906054602 66 0 0.0 0.0 0.00 0.00 0.00 91 1017.7
20260906053056 66 0 0.0 0.0 0.00 0.00 0.00 90 1017.7
20260906051602 66 0 0.0 0.9 0.00 0.00 0.00 90 1017.8
20260906050107 67 146 0.0 2.6 0.00 0.00 0.00 90 1017.5
20260906044600 67 124 0.0 1.7 0.00 0.00 0.00 90 1017.3
20260906043101 67 0 0.0 2.6 0.00 0.00 0.00 89 1017.4
20260906041601 68 0 0.0 0.9 0.00 0.00 0.00 89 1017.6
20260906040100 68 0 0.0 1.7 0.00 0.00 0.00 88 1017.4
20260906034602 68 0 0.0 0.9 0.00 0.00 0.00 88 1017.4
20260906033102 68 0 0.0 0.9 0.00 0.00 0.00 87 1017.4
20260906031603 68 0 0.0 0.9 0.00 0.00 0.00 87 1017.4
20260906024559 69 0 0.0 0.0 0.00 0.00 0.00 86 1017.6
20260906023103 69 0 0.0 0.0 0.00 0.00 0.00 85 1017.7
20260906021606 70 0 0.0 0.0 0.00 0.00 0.00 85 1017.8
20260906020101 70 0 0.0 0.0 0.00 0.00 0.00 84 1017.4
20260906014611 71 0 0.0 0.0 0.00 0.00 0.00 83 1017.5
20260906013058 72 0 0.0 0.0 0.00 0.00 0.00 81 1017.2
20260906011619 73 0 0.0 0.9 0.00 0.00 0.00 80 1016.8
20260906010105 74 0 0.0 1.7 0.00 0.00 0.00 78 1016.4
20260906004605 75 0 0.0 4.3 0.00 0.00 0.00 76 1016.1
20260906003059 76 341 0.9 4.3 0.00 0.00 0.00 75 1015.7
20260906001604 77 59 1.7 5.2 0.00 0.00 0.00 73 1015.6
20260905234558 79 87 1.7 6.1 0.00 0.00 0.00 71 1015.1
20260905233121 79 114 1.7 7.0 0.00 0.00 0.00 70 1014.7
20260905231602 80 105 0.9 7.8 0.00 0.00 0.00 70 1014.5
20260905230103 81 113 2.6 8.7 0.00 0.00 0.00 69 1014.4
20260905224617 81 107 3.5 9.6 0.00 0.00 0.00 69 1014.3
20260905223107 82 103 3.5 9.6 0.00 0.00 0.00 69 1014.8
20260905221559 83 160 1.7 10.4 0.00 0.00 0.00 67 1015.2
20260905220105 82 121 0.0 5.2 0.00 0.00 0.00 68 1015.3
20260905214601 82 143 2.6 9.6 0.00 0.00 0.00 67 1015.5
20260905213102 82 87 1.7 6.1 0.00 0.00 0.00 67 1015.6
20260905211604 82 106 1.7 7.0 0.00 0.00 0.00 68 1015.8